TimeAKDT,TemperatureF,Dew PointF,Humidity,Sea Level PressureIn,VisibilityMPH,Wind Direction,Wind SpeedMPH,Gust SpeedMPH,PrecipitationIn,Events,Conditions,WindDirDegrees,DateUTC
12:53 AM,26.1,19.9,78,30.16,10.0,SE,6.9,-,N/A,,Overcast,140,2012-10-22 08:53:00
1:53 AM,27.0,19.9,75,30.16,10.0,South,11.5,-,N/A,,Overcast,180,2012-10-22 09:53:00
2:53 AM,27.0,21.0,78,30.15,10.0,South,10.4,-,N/A,,Overcast,170,2012-10-22 10:53:00
3:53 AM,27.0,21.0,78,30.15,10.0,SSE,11.5,-,N/A,,Overcast,150,2012-10-22 11:53:00
4:53 AM,28.0,21.9,78,30.15,10.0,SSE,12.7,-,N/A,,Overcast,160,2012-10-22 12:53:00
5:53 AM,28.0,21.9,78,30.16,10.0,SSE,11.5,-,N/A,,Overcast,150,2012-10-22 13:53:00
6:53 AM,28.0,21.0,75,30.17,10.0,SSE,10.4,-,N/A,,Overcast,150,2012-10-22 14:53:00
7:53 AM,28.0,19.9,72,30.17,10.0,South,16.1,-,N/A,,Overcast,170,2012-10-22 15:53:00
8:53 AM,28.0,21.0,75,30.18,10.0,South,16.1,-,N/A,,Overcast,170,2012-10-22 16:53:00
9:53 AM,28.0,21.9,78,30.19,10.0,South,12.7,-,N/A,,Overcast,170,2012-10-22 17:53:00
10:15 AM,28.4,21.2,74,30.19,10.0,South,15.0,-,N/A,,Overcast,170,2012-10-22 18:15:00
10:53 AM,28.0,21.9,78,30.21,10.0,South,13.8,-,N/A,,Overcast,170,2012-10-22 18:53:00
11:53 AM,28.0,21.9,78,30.22,10.0,South,12.7,-,N/A,,Overcast,170,2012-10-22 19:53:00
12:53 PM,28.0,23.0,81,30.23,10.0,SSE,10.4,-,N/A,,Mostly Cloudy,160,2012-10-22 20:53:00
1:53 PM,28.9,23.0,78,30.25,10.0,South,11.5,-,N/A,,Overcast,180,2012-10-22 21:53:00
2:48 PM,30.2,24.8,80,30.26,10.0,South,11.5,-,N/A,,Overcast,190,2012-10-22 22:48:00
2:53 PM,30.0,25.0,82,30.26,10.0,SSW,13.8,-,N/A,,Overcast,200,2012-10-22 22:53:00
3:53 PM,30.9,26.1,82,30.28,10.0,South,12.7,-,N/A,,Overcast,180,2012-10-22 23:53:00
4:01 PM,30.2,26.6,86,30.27,10.0,South,13.8,-,N/A,,Overcast,180,2012-10-23 00:01:00
4:53 PM,30.9,25.0,79,30.29,9.0,South,12.7,-,0.00,,Overcast,180,2012-10-23 00:53:00
5:14 PM,30.2,24.8,80,30.29,10.0,South,13.8,-,N/A,,Overcast,180,2012-10-23 01:14:00
5:53 PM,30.9,26.1,82,30.31,10.0,South,11.5,-,N/A,,Overcast,180,2012-10-23 01:53:00
6:37 PM,30.2,26.6,86,30.32,10.0,South,12.7,-,N/A,,Overcast,190,2012-10-23 02:37:00
6:53 PM,30.9,26.1,82,30.33,10.0,South,11.5,-,N/A,,Overcast,190,2012-10-23 02:53:00
7:01 PM,30.2,26.6,86,30.33,10.0,South,11.5,-,N/A,,Overcast,190,2012-10-23 03:01:00
7:28 PM,32.0,28.4,87,30.33,10.0,SSW,17.3,-,N/A,,Overcast,200,2012-10-23 03:28:00
7:39 PM,32.0,28.4,87,30.33,10.0,SSW,18.4,-,N/A,,Overcast,200,2012-10-23 03:39:00
8:05 PM,32.0,28.4,87,30.34,10.0,SSW,16.1,-,N/A,,Overcast,200,2012-10-23 04:05:00
8:53 PM,32.0,28.9,88,30.35,5.0,SSW,20.7,-,0.00,Snow,Light Snow,210,2012-10-23 04:53:00
10:44 PM,30.2,26.6,86,30.36,10.0,SSW,21.9,-,N/A,,Overcast,200,2012-10-23 06:44:00
10:53 PM,30.9,27.0,85,30.37,10.0,SSW,23.0,-,N/A,,Overcast,210,2012-10-23 06:53:00
11:53 PM,30.9,27.0,85,30.38,10.0,SSW,20.7,-,N/A,,Overcast,200,2012-10-23 07:53:00